| time (UTC) | temp C | wind direction | speed KPH | gust KPH | rain 1hr cm | rain 24hr cm | rain mn cm | humidity % | barometer mb |
| 20260505123036 | 11 | 285 | 4.8 | 14.5 | 0.00 | 0.00 | 0.00 | 86 | 1010.4 |
| 20260505121533 | 11 | 299 | 6.4 | 14.5 | 0.00 | 0.00 | 0.00 | 85 | 1010.3 |
| 20260505120031 | 11 | 320 | 1.6 | 9.7 | 0.00 | 0.00 | 0.00 | 85 | 1010.2 |
| 20260505114529 | 12 | 312 | 3.2 | 8.0 | 0.00 | 0.00 | 0.00 | 85 | 1010.2 |
| 20260505113034 | 12 | 313 | 4.8 | 9.7 | 0.00 | 0.00 | 0.00 | 85 | 1010.1 |
| 20260505111531 | 12 | 318 | 6.4 | 11.3 | 0.00 | 0.00 | 0.00 | 84 | 1010.0 |
| 20260505110107 | 12 | 8 | 4.8 | 14.5 | 0.00 | 0.00 | 0.00 | 83 | 1009.9 |
| 20260505101530 | 13 | 333 | 3.2 | 11.3 | 0.00 | 0.00 | 0.00 | 82 | 1009.6 |
| 20260505100038 | 12 | 329 | 6.4 | 12.9 | 0.00 | 0.00 | 0.00 | 82 | 1009.5 |
| 20260505094531 | 13 | 340 | 3.2 | 9.7 | 0.00 | 0.00 | 0.00 | 81 | 1009.4 |
| 20260505093031 | 13 | 351 | 1.6 | 6.4 | 0.00 | 0.00 | 0.00 | 81 | 1009.3 |
| 20260505091530 | 13 | 348 | 3.2 | 8.0 | 0.00 | 0.00 | 0.00 | 81 | 1009.3 |
| 20260505090031 | 13 | 314 | 3.2 | 9.7 | 0.00 | 0.00 | 0.00 | 80 | 1009.1 |
| 20260505084606 | 13 | 348 | 1.6 | 9.7 | 0.00 | 0.00 | 0.00 | 80 | 1009.1 |
| 20260505083030 | 14 | 325 | 1.6 | 8.0 | 0.00 | 0.00 | 0.00 | 79 | 1009.1 |
| 20260505081643 | 14 | 329 | 3.2 | 8.0 | 0.00 | 0.00 | 0.00 | 78 | 1008.9 |
| 20260505080032 | 15 | 13 | 3.2 | 6.4 | 0.00 | 0.00 | 0.00 | 77 | 1008.8 |
| 20260505071532 | 16 | 343 | 3.2 | 6.4 | 0.00 | 0.00 | 0.00 | 70 | 1008.5 |
| 20260505070032 | 17 | 213 | 3.2 | 14.5 | 0.00 | 0.00 | 0.00 | 69 | 1008.4 |
| 20260505064528 | 17 | 203 | 8.0 | 14.5 | 0.00 | 0.00 | 0.00 | 68 | 1008.3 |
| 20260505063030 | 17 | 192 | 4.8 | 12.9 | 0.00 | 0.00 | 0.00 | 67 | 1008.2 |
| 20260505054531 | 18 | 192 | 6.4 | 14.5 | 0.00 | 0.00 | 0.00 | 62 | 1008.1 |
| 20260505053031 | 18 | 184 | 11.3 | 20.9 | 0.00 | 0.00 | 0.00 | 61 | 1008.1 |
| 20260505041535 | 19 | 175 | 6.4 | 11.3 | 0.00 | 0.00 | 0.00 | 54 | 1007.2 |
| 20260505040043 | 19 | 178 | 4.8 | 9.7 | 0.00 | 0.00 | 0.00 | 54 | 1007.0 |
| 20260505034647 | 20 | 196 | 3.2 | 8.0 | 0.00 | 0.00 | 0.00 | 54 | 1006.8 |
| 20260505031528 | 20 | 189 | 1.6 | 8.0 | 0.00 | 0.00 | 0.00 | 54 | 1006.3 |
| 20260505030032 | 21 | 226 | 4.8 | 14.5 | 0.00 | 0.00 | 0.00 | 54 | 1006.1 |
| 20260505024532 | 21 | 210 | 6.4 | 17.7 | 0.00 | 0.00 | 0.00 | 53 | 1005.9 |
| 20260505021530 | 22 | 256 | 11.3 | 27.4 | 0.00 | 0.00 | 0.00 | 51 | 1005.7 |
| 20260505020029 | 22 | 259 | 12.9 | 22.5 | 0.00 | 0.00 | 0.00 | 51 | 1005.8 |
| 20260505014533 | 22 | 254 | 12.9 | 27.4 | 0.00 | 0.00 | 0.00 | 51 | 1005.6 |
| 20260505011531 | 24 | 251 | 16.1 | 27.4 | 0.00 | 0.00 | 0.00 | 48 | 1005.5 |
| 20260505010032 | 25 | 253 | 16.1 | 29.0 | 0.00 | 0.00 | 0.00 | 47 | 1005.5 |
| 20260505003144 | 25 | 254 | 19.3 | 32.2 | 0.00 | 0.00 | 0.00 | 45 | 1005.4 |
| 20260505001528 | 26 | 256 | 19.3 | 38.6 | 0.00 | 0.00 | 0.00 | 45 | 1005.3 |
| 20260505000029 | 26 | 262 | 16.1 | 29.0 | 0.00 | 0.00 | 0.00 | 45 | 1005.4 |
| 20260504234531 | 27 | 267 | 12.9 | 27.4 | 0.00 | 0.00 | 0.00 | 44 | 1005.4 |
| 20260504231529 | 27 | 251 | 12.9 | 27.4 | 0.00 | 0.00 | 0.00 | 44 | 1005.4 |
| 20260504223030 | 28 | 312 | 6.4 | 16.1 | 0.00 | 0.00 | 0.00 | 45 | 1006.0 |
| 20260504221531 | 27 | 301 | 8.0 | 19.3 | 0.00 | 0.00 | 0.00 | 45 | 1006.1 |
| 20260504220032 | 27 | 343 | 11.3 | 20.9 | 0.00 | 0.00 | 0.00 | 46 | 1006.1 |
| 20260504214530 | 26 | 359 | 12.9 | 22.5 | 0.00 | 0.00 | 0.00 | 46 | 1006.3 |
| 20260504213031 | 26 | 350 | 12.9 | 25.7 | 0.00 | 0.00 | 0.00 | 46 | 1006.5 |
| 20260504211533 | 26 | 359 | 14.5 | 22.5 | 0.00 | 0.00 | 0.00 | 46 | 1006.6 |
| 20260504204530 | 26 | 340 | 12.9 | 22.5 | 0.00 | 0.00 | 0.00 | 46 | 1006.9 |
| 20260504203108 | 26 | 337 | 12.9 | 24.1 | 0.00 | 0.00 | 0.00 | 46 | 1006.9 |
| 20260504201530 | 26 | 340 | 9.7 | 19.3 | 0.00 | 0.00 | 0.00 | 47 | 1007.1 |
| 20260504200031 | 25 | 338 | 12.9 | 22.5 | 0.00 | 0.00 | 0.00 | 47 | 1007.2 |
| 20260504193032 | 25 | 353 | 14.5 | 24.1 | 0.00 | 0.00 | 0.00 | 48 | 1007.3 |
| 20260504191531 | 25 | 348 | 14.5 | 24.1 | 0.00 | 0.00 | 0.00 | 49 | 1007.4 |
| 20260504190033 | 24 | 347 | 11.3 | 24.1 | 0.00 | 0.00 | 0.00 | 50 | 1007.6 |
| 20260504184531 | 24 | 338 | 12.9 | 24.1 | 0.00 | 0.00 | 0.00 | 50 | 1007.7 |
| 20260504183030 | 23 | 353 | 12.9 | 22.5 | 0.00 | 0.00 | 0.00 | 51 | 1007.6 |
| 20260504181531 | 23 | 358 | 12.9 | 24.1 | 0.00 | 0.00 | 0.00 | 52 | 1007.8 |
| 20260504180030 | 23 | 6 | 14.5 | 24.1 | 0.00 | 0.00 | 0.00 | 54 | 1007.8 |
| 20260504174532 | 22 | 350 | 11.3 | 19.3 | 0.00 | 0.00 | 0.00 | 55 | 1007.9 |
| 20260504173029 | 22 | 354 | 11.3 | 17.7 | 0.00 | 0.00 | 0.00 | 56 | 1007.9 |
| 20260504171529 | 21 | 3 | 11.3 | 17.7 | 0.00 | 0.00 | 0.00 | 57 | 1007.9 |